Weather History for Spokane Fairchild, WA

Change the Weather History Date:

Wednesday, February 29, 2012

  Actual Average Record
Temperature  
Mean Temperature 30 °F -  
Max Temperature 35 °F 39 °F 47 °F (2008)
Min Temperature 26 °F 25 °F 26 °F (2012)
Degree Days  
Heating Degree Days 34    
Moisture  
Dew Point 29 °F    
Average Humidity 94    
Maximum Humidity 100    
Minimum Humidity 67    
Precipitation  
Precipitation 0.08 in - - ()
Sea Level Pressure  
Sea Level Pressure 29.66 in    
Wind  
Wind Speed 14 mph (South)    
Max Wind Speed 26 mph    
Max Gust Speed 32 mph    
Visibility 8 miles    
Events Rain , Snow    
Averages and records for this station are not official NWS values.
T = Trace of Precipitation, MM = Missing Value Source: NWS Daily Summary

Daily Weather History Graph

Daily Weather History Graph

Search for Another Location

Airport:

Trip Planner

Search our weather history database for the weather conditions in past years. The results will help you decide how hot, cold, wet, or windy it might be!

Date:

Astronomy

Feb. 29, 2012 Rise Set
Actual Time 6:31 AM PST 5:34 PM PST
Civil Twilight 6:01 AM PST 6:05 PM PST
Nautical Twilight 5:25 AM PST 6:41 PM PST
Astronomical Twilight 4:49 AM PST 7:17 PM PST
Moon 9:53 AM PST (2/29) 12:58 AM PST (2/29)
Length of Visible Light 12h 04m
Length of Day
11h 02m
Waxing Crescent, 48% of the Moon is Illuminated
Feb 29
Waxing Crescent
Feb 29
First Quarter
Mar 8
Full
Mar 14
Last Quarter
Mar 22
New

Hourly Weather History & Observations

Time (PST) Temp. Windchill Dew Point Humidity Pressure Visibility Wind Dir Wind Speed Gust Speed Precip Events Conditions
12:30 AM 26.6 °F 14.3 °F 26.6 °F 100% 29.65 in 10.0 mi NE 16.1 mph - N/A   Overcast
12:34 AM 26.6 °F 14.7 °F 26.6 °F 100% 29.65 in 10.0 mi NNE 15.0 mph - N/A   Overcast
12:47 AM 26.6 °F 15.2 °F 26.6 °F 100% 29.65 in 10.0 mi NNE 13.8 mph - N/A   Scattered Clouds
12:53 AM 28.4 °F 17.5 °F 28.4 °F 100% 29.65 in 10.0 mi NNE 13.8 mph - N/A   Mostly Cloudy
12:55 AM 27.7 °F 17.6 °F 27.7 °F 100% 29.65 in 10.0 mi NNE 11.5 mph - 0.00 in   Mostly Cloudy
12:56 AM 28.4 °F 19.1 °F 28.4 °F 100% 29.65 in 10.0 mi NNE 10.4 mph - N/A   Mostly Cloudy
1:18 AM 28.4 °F 18.5 °F 28.4 °F 100% 29.65 in 10.0 mi NNE 11.5 mph - N/A   Overcast
1:27 AM 28.4 °F 17.5 °F 28.4 °F 100% 29.65 in 10.0 mi NNE 13.8 mph - N/A   Overcast
1:31 AM 28.4 °F 17.0 °F 28.4 °F 100% 29.64 in 4.0 mi NE 15.0 mph - N/A Snow Light Snow
1:33 AM 28.4 °F 17.5 °F 28.4 °F 100% 29.64 in 2.5 mi NE 13.8 mph - N/A Snow Light Snow
1:36 AM 28.4 °F 19.1 °F 28.4 °F 100% 29.64 in 1.8 mi NE 10.4 mph - N/A Snow Light Snow
1:38 AM 28.4 °F 18.0 °F 28.4 °F 100% 29.64 in 1.2 mi ENE 12.7 mph - N/A Snow Light Snow
1:40 AM 28.4 °F 18.5 °F 28.4 °F 100% 29.64 in 1.2 mi ENE 11.5 mph - N/A Snow Light Snow
1:55 AM 27.0 °F 17.3 °F 27.0 °F 100% 29.63 in 1.2 mi NE 10.4 mph - 0.00 in Snow Light Snow
2:13 AM 26.6 °F 16.8 °F 26.6 °F 100% 29.63 in 1.0 mi NE 10.4 mph - N/A Snow Light Snow
2:15 AM 26.6 °F 16.8 °F 26.6 °F 100% 29.62 in 1.0 mi NE 10.4 mph - N/A Snow Light Snow
2:33 AM 26.6 °F 16.8 °F 26.6 °F 100% 29.62 in 1.0 mi NE 10.4 mph - N/A Snow Light Snow
2:55 AM 27.5 °F 18.0 °F 27.5 °F 100% 29.61 in 1.2 mi NE 10.4 mph - 0.02 in Snow Light Snow
2:57 AM 28.4 °F 19.1 °F 28.4 °F 100% 29.61 in 1.5 mi NE 10.4 mph - N/A Snow Light Snow
3:00 AM 28.4 °F 19.1 °F 28.4 °F 100% 29.60 in 2.0 mi NE 10.4 mph - N/A Snow Light Snow
3:02 AM 28.4 °F 18.5 °F 28.4 °F 100% 29.60 in 3.0 mi NE 11.5 mph - N/A Snow Light Snow
3:33 AM 28.4 °F 18.5 °F 28.4 °F 100% 29.58 in 2.5 mi NE 11.5 mph - N/A Snow Light Snow
3:37 AM 28.4 °F 19.1 °F 28.4 °F 100% 29.58 in 1.8 mi ENE 10.4 mph - N/A Snow Light Snow
3:43 AM 30.2 °F 19.8 °F 30.2 °F 100% 29.57 in 1.5 mi NE 13.8 mph - N/A Snow Light Snow
3:47 AM 30.2 °F 19.3 °F 30.2 °F 100% 29.57 in 1.2 mi NE 15.0 mph - N/A Snow Light Snow
3:52 AM 30.2 °F 20.8 °F 30.2 °F 100% 29.58 in 1.2 mi NE 11.5 mph - N/A Snow Light Snow
3:55 AM 29.3 °F 20.2 °F 29.3 °F 100% 29.58 in 1.2 mi NE 10.4 mph - 0.02 in Snow Light Snow
3:57 AM 28.4 °F 19.1 °F 28.4 °F 100% 29.58 in 1.2 mi NE 10.4 mph - N/A Snow Light Snow
4:01 AM 28.4 °F 19.1 °F 28.4 °F 100% 29.57 in 1.5 mi NE 10.4 mph - N/A Snow Light Snow
4:04 AM 28.4 °F 18.5 °F 28.4 °F 100% 29.57 in 1.8 mi NE 11.5 mph - N/A Snow Light Snow
4:06 AM 28.4 °F 20.4 °F 28.4 °F 100% 29.58 in 2.0 mi ENE 8.1 mph - N/A Snow Light Snow
4:11 AM 28.4 °F 20.4 °F 28.4 °F 100% 29.58 in 2.5 mi NE 8.1 mph - N/A Snow Light Snow
4:42 AM 30.2 °F 24.3 °F 30.2 °F 100% 29.57 in 2.0 mi East 5.8 mph - N/A Snow Light Snow
4:51 AM 30.2 °F 25.4 °F 30.2 °F 100% 29.57 in 2.5 mi ENE 4.6 mph - N/A Snow Light Snow
4:55 AM 29.3 °F 23.2 °F 29.3 °F 100% 29.57 in 2.5 mi NE 5.8 mph - 0.03 in Snow Light Snow
5:00 AM 28.4 °F - 28.4 °F 100% 29.58 in 3.0 mi Calm Calm - N/A Snow Light Snow
5:23 AM 32.0 °F 24.2 °F 32.0 °F 100% 29.56 in 10.0 mi ESE 9.2 mph - N/A Snow Light Snow
5:28 AM 32.0 °F 24.2 °F 32.0 °F 100% 29.57 in 10.0 mi SE 9.2 mph - N/A   Overcast
5:48 AM 32.0 °F 22.1 °F 32.0 °F 100% 29.59 in 10.0 mi SSE 13.8 mph - N/A Rain Light Rain
5:55 AM 32.7 °F 21.8 °F 32.7 °F 100% 29.59 in 10.0 mi SSE 17.3 mph - 0.01 in Snow Light Snow
6:02 AM 32.0 °F 18.4 °F 32.0 °F 100% 29.59 in 10.0 mi South 26.5 mph 32.2 mph N/A Rain Light Rain
6:14 AM 32.0 °F 18.9 °F 32.0 °F 100% 29.60 in 8.0 mi South 24.2 mph 32.2 mph N/A Snow Light Snow
6:21 AM 32.0 °F 19.5 °F 32.0 °F 100% 29.60 in 10.0 mi South 21.9 mph 32.2 mph N/A Snow Light Snow
6:27 AM 30.2 °F 17.4 °F 30.2 °F 100% 29.60 in 10.0 mi South 20.7 mph - N/A   Overcast
6:32 AM 30.2 °F 17.4 °F 30.2 °F 100% 29.60 in 10.0 mi South 20.7 mph 29.9 mph N/A Snow Light Snow
6:55 AM 29.7 °F 16.1 °F 29.7 °F 100% 29.62 in 10.0 mi South 23.0 mph - 0.00 in Snow Light Snow
7:26 AM 28.4 °F 17.5 °F 28.4 °F 100% 29.64 in 10.0 mi SSW 13.8 mph - N/A   Overcast
7:38 AM 28.4 °F 16.2 °F 28.4 °F 100% 29.65 in 10.0 mi SW 17.3 mph - N/A   Light Freezing Rain
7:39 AM 28.4 °F 15.8 °F 28.4 °F 100% 29.65 in 10.0 mi SW 18.4 mph - N/A   Light Freezing Rain
7:53 AM 28.4 °F 17.0 °F 28.4 °F 100% 29.66 in 10.0 mi SW 15.0 mph - N/A   Overcast
7:55 AM 28.9 °F 17.7 °F 28.9 °F 100% 29.65 in 10.0 mi SW 15.0 mph - 0.00 in   Overcast
8:00 AM 28.4 °F 17.0 °F 28.4 °F 100% 29.66 in 10.0 mi SW 15.0 mph - N/A   Overcast
8:09 AM 28.4 °F 17.0 °F 28.4 °F 100% 29.66 in 10.0 mi SW 15.0 mph - N/A   Overcast
8:10 AM 28.4 °F 17.5 °F 28.4 °F 100% 29.67 in 10.0 mi SSW 13.8 mph - N/A   Light Freezing Rain
8:20 AM 28.4 °F 17.0 °F 28.4 °F 100% 29.67 in 10.0 mi SW 15.0 mph - N/A   Overcast
8:27 AM 28.4 °F 17.5 °F 28.4 °F 100% 29.67 in 10.0 mi SW 13.8 mph - N/A   Overcast
8:55 AM 28.4 °F 17.5 °F 28.4 °F 100% 29.68 in 10.0 mi SW 13.8 mph - 0.00 in   Mostly Cloudy
9:05 AM 28.4 °F 19.1 °F 28.4 °F 100% 29.67 in 10.0 mi SSW 10.4 mph - N/A   Mostly Cloudy
9:55 AM 29.5 °F 18.4 °F 29.5 °F 100% 29.68 in 10.0 mi SSW 15.0 mph - N/A   Partly Cloudy
10:16 AM 30.2 °F 19.8 °F 30.2 °F 100% 29.69 in 10.0 mi SSW 13.8 mph 20.7 mph N/A   Clear
10:55 AM 32.5 °F 22.3 °F 31.1 °F 94% 29.70 in 10.0 mi SSW 15.0 mph 23.0 mph 0.00 in   Mostly Cloudy
11:31 AM 33.8 °F - 28.4 °F 81% 29.70 in 10.0 mi North - - N/A   Mostly Cloudy
11:40 AM 32.0 °F 20.8 °F 28.4 °F 87% 29.70 in 10.0 mi SW 17.3 mph - N/A Snow Light Snow
11:47 AM 33.8 °F - 30.2 °F 87% 29.71 in 10.0 mi North - - N/A Snow Light Snow
11:55 AM 34.0 °F 23.8 °F 26.6 °F 74% 29.70 in 10.0 mi SSW 16.1 mph 21.9 mph N/A   Scattered Clouds
12:02 PM 33.8 °F - 26.6 °F 75% 29.70 in 10.0 mi North - - N/A Snow Light Snow
12:07 PM 33.8 °F 23.5 °F 26.6 °F 75% 29.71 in 10.0 mi SSW 16.1 mph - N/A Snow Light Snow
12:27 PM 33.8 °F 22.2 °F 26.6 °F 75% 29.70 in 10.0 mi South 20.7 mph 26.5 mph N/A   Scattered Clouds
12:44 PM 33.8 °F 23.9 °F 26.6 °F 75% 29.70 in 10.0 mi South 15.0 mph - N/A   Mostly Cloudy
12:50 PM 33.8 °F 24.3 °F 28.4 °F 81% 29.70 in 10.0 mi South 13.8 mph - N/A   Overcast
12:55 PM 34.2 °F 24.4 °F 27.3 °F 76% 29.70 in 10.0 mi SSW 15.0 mph - 0.00 in   Overcast
1:20 PM 33.8 °F 25.8 °F 26.6 °F 75% 29.70 in 10.0 mi South 10.4 mph - N/A Rain Light Rain
1:30 PM 35.6 °F 27.1 °F 26.6 °F 70% 29.70 in 10.0 mi South 12.7 mph - N/A   Overcast
1:39 PM 35.6 °F 25.9 °F 26.6 °F 70% 29.70 in 10.0 mi South 16.1 mph - N/A Rain Light Rain
1:55 PM 35.8 °F 26.1 °F 25.7 °F 67% 29.69 in 10.0 mi SSW 16.1 mph - 0.00 in Rain Light Rain
2:55 PM 34.5 °F 25.3 °F 27.5 °F 76% 29.70 in 10.0 mi SSW 13.8 mph 25.3 mph 0.00 in Snow Light Snow
3:47 PM 33.8 °F 24.8 °F 30.2 °F 87% 29.70 in 10.0 mi SW 12.7 mph - N/A Snow Light Snow
3:55 PM 33.1 °F 21.2 °F 31.1 °F 92% 29.70 in 5.0 mi SW 20.7 mph 25.3 mph 0.00 in Snow Light Snow
3:58 PM 33.8 °F 22.5 °F 32.0 °F 93% 29.70 in 5.0 mi SSW 19.6 mph 25.3 mph N/A Snow Light Snow
4:14 PM 32.0 °F 20.5 °F 32.0 °F 100% 29.71 in 4.0 mi SSW 18.4 mph 29.9 mph N/A Snow Light Snow
4:28 PM 32.0 °F 22.5 °F 32.0 °F 100% 29.70 in 10.0 mi South 12.7 mph - N/A   Overcast
4:40 PM 32.0 °F 24.2 °F 32.0 °F 100% 29.70 in 10.0 mi South 9.2 mph - N/A   Mostly Cloudy
4:55 PM 31.6 °F 23.1 °F 31.6 °F 100% 29.70 in 10.0 mi South 10.4 mph - 0.00 in   Scattered Clouds
5:48 PM 32.0 °F 22.5 °F 32.0 °F 100% 29.70 in 10.0 mi South 12.7 mph 17.3 mph N/A   Overcast
5:55 PM 33.6 °F 22.9 °F 30.4 °F 88% 29.69 in 10.0 mi SSW 17.3 mph - 0.00 in Rain Light Rain
6:00 PM 33.8 °F 24.3 °F 30.2 °F 87% 29.68 in 10.0 mi South 13.8 mph - N/A   Mostly Cloudy
6:10 PM 33.8 °F 25.3 °F 28.4 °F 81% 29.69 in 10.0 mi SSW 11.5 mph - N/A Rain Light Rain
6:36 PM 35.6 °F 26.2 °F 28.4 °F 75% 29.70 in 10.0 mi SSW 15.0 mph 21.9 mph N/A   Scattered Clouds
6:55 PM 34.3 °F 25.5 °F 27.9 °F 77% 29.69 in 10.0 mi SSW 12.7 mph - 0.00 in   Scattered Clouds
7:55 PM 32.9 °F 25.3 °F 29.8 °F 88% 29.70 in 10.0 mi South 9.2 mph - N/A   Partly Cloudy
8:44 PM 32.0 °F 21.6 °F 30.2 °F 93% 29.70 in 10.0 mi SSW 15.0 mph - N/A   Scattered Clouds
8:49 PM 32.0 °F 21.2 °F 30.2 °F 93% 29.70 in 10.0 mi SSW 16.1 mph - N/A   Scattered Clouds
8:55 PM 32.7 °F 22.1 °F 29.8 °F 89% 29.71 in 10.0 mi SSW 16.1 mph - 0.00 in   Mostly Cloudy
8:56 PM 32.0 °F 21.6 °F 30.2 °F 93% 29.71 in 10.0 mi SSW 15.0 mph - N/A   Mostly Cloudy
9:06 PM 32.0 °F 20.1 °F 30.2 °F 93% 29.71 in 10.0 mi SSW 19.6 mph - N/A   Overcast
9:13 PM 32.0 °F 20.8 °F 30.2 °F 93% 29.71 in 10.0 mi SSW 17.3 mph - N/A   Overcast
9:26 PM 32.0 °F 20.1 °F 30.2 °F 93% 29.72 in 10.0 mi SSW 19.6 mph 25.3 mph N/A   Overcast
9:44 PM 32.0 °F 20.1 °F 30.2 °F 93% 29.72 in 10.0 mi SSW 19.6 mph 24.2 mph N/A   Scattered Clouds
9:55 PM 32.0 °F 20.5 °F 29.5 °F 90% 29.72 in 10.0 mi SSW 18.4 mph 25.3 mph 0.00 in   Partly Cloudy
10:02 PM 32.0 °F 22.1 °F 30.2 °F 93% 29.72 in 10.0 mi SSW 13.8 mph - N/A   Clear
10:55 PM 30.7 °F 20.9 °F 29.7 °F 96% 29.72 in 10.0 mi SSW 12.7 mph - 0.00 in   Partly Cloudy
11:17 PM 30.2 °F 19.3 °F 28.4 °F 93% 29.72 in 10.0 mi SSW 15.0 mph - N/A   Partly Cloudy
11:37 PM 30.2 °F 19.8 °F 28.4 °F 93% 29.73 in 10.0 mi SSW 13.8 mph - N/A   Partly Cloudy
11:50 PM 30.2 °F 19.3 °F 28.4 °F 93% 29.72 in 10.0 mi SSW 15.0 mph - N/A   Scattered Clouds
11:55 PM 30.4 °F 20.5 °F 28.4 °F 92% 29.73 in 10.0 mi SSW 12.7 mph - 0.00 in   Partly Cloudy